Regional Weather Roundup
Issued by NWS

Home | Current Version | Previous Version | Graphics & Text | Print | Product List | Glossary On
Versions: 1 2 3 4 5 6 7 8 9 10 11 12 13 14 15 16 17 18 19 20 21 22 23 24 25 26 27 28 29 30 31 32 33 34 35 36 37 38 39 40 41 42 43 44 45 46 47 48 49 50
000
ASUS43 KFSD 200402
RWRSD

WEATHER ROUNDUP FOR SOUTH DAKOTA
NATIONAL WEATHER SERVICE SIOUX FALLS SD
1000 PM CST MON FEB 19 2018

NOTE: "FAIR" INDICATES FEW OR NO CLOUDS BELOW 12,000 FEET WITH NO
SIGNIFICANT WEATHER AND/OR OBSTRUCTIONS TO VISIBILITY.


SDZ001>005-009-010-012>017-200500-
NORTHWEST AND NORTH CENTRAL SOUTH DAKOTA

CITY           SKY/WX    TMP DP  RH WIND       PRES   REMARKS
BUFFALO          N/A      1  -5  75 N6        29.93S WCI -10
FAITH            N/A      0  -2  91 N14       30.02R WCI -19
MOBRIDGE       LGT SNOW   5  -1  76 N13       30.05S WCI -12
$$

SDZ012>016-024>037-041>051-057-063-072>074-200500-
SOUTHWEST AND SOUTH CENTRAL SOUTH DAKOTA

CITY           SKY/WX    TMP DP  RH WIND       PRES   REMARKS
RAPID CTY ARPT LGT SNOW  -1  -6  79 N20       29.96R WCI -23
PIERRE         FOG        5   2  87 NE16      30.05R VSB 1   WCI -14
CUSTER         CLOUDY    -2  -8  76 CALM      29.68S
ELLSWORTH AFB  CLOUDY     0  -4  85 N15       29.95  WCI -20
PHILIP         LGT SNOW   3  -1  83 N18       30.01S FOG     WCI -17
PINE RIDGE     LGT SNOW   0  -5  79 NW6       29.96R WCI -12
SPEARFISH        N/A     -4  -9  77 NE3       29.91S
WINNER         LGT SNOW   8   3  80 N18       29.97R VSB 1   WCI -11
$$

SDZ004>011-016>023-039-040-200500-
NORTHEAST SOUTH DAKOTA

CITY           SKY/WX    TMP DP  RH WIND       PRES   REMARKS
ABERDEEN       SNOW       4   0  83 N17       30.09R VSB 1/2 WCI -16
WATERTOWN      CLOUDY     6   3  87 N15       29.94R FOG     WCI -12
BROOKINGS      FLURRIES  10   7  87 N12       29.92R WCI  -5
SISSETON         N/A      6   3  87 N20       30.02F WCI -14
$$

SDZ017-020-022-023-036>040-048>070-200500-
SOUTHEAST SOUTH DAKOTA

CITY           SKY/WX    TMP DP  RH WIND       PRES   REMARKS
SIOUX FALLS    FLURRIES  15  11  83 NE10      29.90R WCI   2
HURON          LGT SNOW   7   5  91 N16       30.03R VSB 3/4 WCI -11
CHAMBERLAIN      N/A      8   5  86 NW14G21   29.99S WCI  -8
MITCHELL       LGT SNOW  11   7  84 N15       30.00R FOG     WCI  -5
YANKTON        FLURRIES  16  12  84 N12       29.94R WCI   3
$$

ABBREVIATIONS USED IN REMARKS
   TC - TEMPERATURE IN CELSIUS
  WCI - WIND CHILL INDEX
   HX - HEAT INDEX
  VSB - VISIBILITY




USA.gov is the U.S. government's official web portal to all federal, state and local government web resources and services.